Home > Weather > Haltern am See > Past weeks

Flag for Germany Past Weather in Haltern am See, North Rhine-Westphalia, Germany — Yesterday and Last 2 Weeks

Now
70 °F

Passing clouds.


Feels Like: 70 °F
Forecast: 57 / 73 °F
Wind: 6 mph from North

Location: Dortmund / Wickede

Current Time: Jul 26, 2016 at 12:25:54 PM

Latest Report: Jul 26, 2016 at 11:50 AM


Visibility: N/A

Pressure: 30.15 "Hg

Humidity: 64%

Dew Point: 57 °F

Location of Haltern am SeeLocation

Past Weather in Haltern am See — Graph

°F

Haltern am See Temperature Yesterday

Maximum temperature yesterday: 79 °F (at 2:50 PM)
Minimum temperature yesterday: 66 °F (at 5:20 AM)
Average temperature yesterday: 73 °F

High & Low Weather Summary for the Past Weeks

 TemperatureHumidityPressure
High91 °F (Jul 20, 3:20 PM)88% (Jul 13, 5:20 AM)30.30 "Hg (Jul 13, 5:20 AM)
Low48 °F (Jul 14, 5:20 AM)20% (Jul 20, 5:20 PM)29.83 "Hg (Jul 11, 10:20 AM)
Average69 °F59%30.07 "Hg
* Reported Jul 11 10:20 AM — Jul 26 10:50 AM, Haltern am See, Weather by CustomWeather, © 2016

Note: Actual official high and low records may vary slightly from our data, if they occured in-between our weather recording intervals... More about our weather records

Advertising

Haltern am See Weather History for the Previous 24 Hours

Scroll right to see more
 ConditionsComfort  
Time TempWeatherWind HumidityBarometerVisibility
10:50 AM
Tue, Jul 26
68 °FBroken clouds.3 mph69%30.15 "HgN/A
10:20 AM66 °FBroken clouds.3 mph73%30.15 "HgN/A
9:50 AM66 °FScattered clouds.5 mph83%30.15 "HgN/A
9:20 AM66 °FPartly sunny.2 mph78%30.15 "Hg5 mi
8:50 AM66 °FScattered clouds.3 mph78%30.15 "Hg4 mi
8:20 AM64 °FPartly sunny.2 mph83%30.15 "Hg4 mi
7:50 AM64 °FScattered clouds.1 mph88%30.15 "Hg4 mi
7:20 AM63 °FScattered clouds.3 mph88%30.12 "Hg5 mi
6:50 AM63 °FPartly sunny.No wind88%30.15 "Hg6 mi
6:20 AM61 °FPassing clouds.No wind88%30.12 "Hg6 mi
5:50 AM61 °FClear.3 mph88%30.12 "Hg6 mi
5:20 AM63 °FPassing clouds.No wind88%30.12 "Hg6 mi
9:50 PM
Mon, Jul 25
66 °FLight rain. Scattered clouds.2 mph83%30.09 "HgN/A
9:20 PM66 °FLight rain. Scattered clouds.No wind88%30.09 "HgN/A
8:50 PM66 °FSprinkles. Scattered clouds.9 mph88%30.09 "HgN/A
8:20 PM73 °FScattered clouds.5 mph57%30.09 "HgN/A
7:50 PM73 °FScattered clouds.7 mph57%30.09 "HgN/A
7:20 PM77 °FPassing clouds.6 mph54%30.07 "HgN/A
6:50 PM75 °FScattered clouds.6 mph54%30.07 "HgN/A
6:20 PM75 °FScattered clouds.5 mph57%30.09 "HgN/A
5:50 PM75 °FScattered clouds.9 mph57%30.09 "HgN/A
5:20 PM75 °FPartly sunny.8 mph54%30.09 "HgN/A
4:50 PM75 °FSunny.8 mph54%30.09 "Hg10 mi
4:20 PM75 °FPassing clouds.9 mph54%30.09 "HgN/A
3:50 PM75 °FBroken clouds.10 mph54%30.09 "HgN/A
3:20 PM77 °FBroken clouds.9 mph47%30.07 "HgN/A
2:50 PM79 °FScattered clouds.10 mph48%30.07 "HgN/A
2:20 PM77 °FSunny.10 mph51%30.09 "Hg10 mi
1:50 PM77 °FPassing clouds.9 mph51%30.09 "HgN/A
1:20 PM77 °FPassing clouds.10 mph51%30.09 "HgN/A
12:50 PM77 °FScattered clouds.9 mph51%30.09 "HgN/A
12:20 PM77 °FPassing clouds.9 mph51%30.09 "HgN/A
12:03 PM75 °FMild.8 mph54%30.09 "HgN/A
Weather by CustomWeather, © 2016

See weather overviewHow to use our weather pages